Time,TemperatureF,DewpointF,PressureIn,WindDirection,WindDirectionDegrees,WindSpeedMPH,WindSpeedGustMPH,Humidity,HourlyPrecipIn,Conditions,Clouds,dailyrainin,SolarRadiationWatts/m^2,SoftwareType,DateUTC
2013-07-02 00:00:00,63.2,54.8,30.12,NNE,22,0.0,0.0,74,0.00,CLR,,0.00,0.0,WeatherDisplay:10.37,2013-07-02 05:00:00,
2013-07-02 00:05:00,63.1,54.7,30.12,NNE,22,0.0,0.0,74,0.00,CLR,,0.00,0.0,WeatherDisplay:10.37,2013-07-02 05:05:00,
2013-07-02 00:11:00,63.1,54.7,30.12,NNE,22,0.0,0.0,74,0.00,CLR,,0.00,0.0,WeatherDisplay:10.37,2013-07-02 05:11:00,
2013-07-02 00:16:00,63.0,54.6,30.12,NNE,22,0.0,0.0,74,0.00,CLR,,0.00,0.0,WeatherDisplay:10.37,2013-07-02 05:16:00,
2013-07-02 00:21:00,62.9,54.9,30.12,NNE,22,0.0,0.0,75,0.00,CLR,,0.00,0.0,WeatherDisplay:10.37,2013-07-02 05:21:00,
2013-07-02 00:26:00,62.8,54.8,30.12,NNE,22,0.0,0.0,75,0.00,CLR,,0.00,0.0,WeatherDisplay:10.37,2013-07-02 05:26:00,
2013-07-02 00:32:00,62.7,54.7,30.12,NNE,22,0.0,0.0,75,0.00,CLR,CLR,0.00,0.0,WeatherDisplay:10.37,2013-07-02 05:32:00,
2013-07-02 00:37:00,62.6,54.6,30.12,NNE,22,0.0,0.0,75,0.00,CLR,,0.00,0.0,WeatherDisplay:10.37,2013-07-02 05:37:00,
2013-07-02 00:42:00,62.5,54.5,30.12,NNE,22,0.0,0.0,75,0.00,CLR,,0.00,0.0,WeatherDisplay:10.37,2013-07-02 05:42:00,
2013-07-02 00:47:00,62.3,54.6,30.12,NNE,22,0.0,0.0,76,0.00,CLR,,0.00,0.0,WeatherDisplay:10.37,2013-07-02 05:47:00,
2013-07-02 00:53:00,62.1,54.4,30.12,NNE,22,0.0,0.0,76,0.00,CLR,,0.00,0.0,WeatherDisplay:10.37,2013-07-02 05:53:00,
2013-07-02 00:58:00,62.0,54.7,30.12,NNE,22,0.0,0.0,77,0.00,CLR,,0.00,0.0,WeatherDisplay:10.37,2013-07-02 05:58:00,
2013-07-02 01:03:00,61.9,54.6,30.11,NNE,22,0.0,0.0,77,0.00,CLR,,0.00,0.0,WeatherDisplay:10.37,2013-07-02 06:03:00,
2013-07-02 01:08:00,61.9,54.6,30.12,NNE,22,0.0,0.0,77,0.00,CLR,,0.00,0.0,WeatherDisplay:10.37,2013-07-02 06:08:00,
2013-07-02 01:14:00,61.8,54.5,30.11,NNE,22,0.0,0.0,77,0.00,CLR,,0.00,0.0,WeatherDisplay:10.37,2013-07-02 06:14:00,
2013-07-02 01:19:00,61.8,54.9,30.11,NNE,22,0.0,0.0,78,0.00,CLR,,0.00,0.0,WeatherDisplay:10.37,2013-07-02 06:19:00,
2013-07-02 01:24:00,61.8,54.9,30.11,NNE,22,0.0,0.0,78,0.00,CLR,,0.00,0.0,WeatherDisplay:10.37,2013-07-02 06:24:00,
2013-07-02 01:29:00,61.8,54.9,30.11,NNE,22,0.0,0.0,78,0.00,CLR,,0.00,0.0,WeatherDisplay:10.37,2013-07-02 06:29:00,
2013-07-02 01:35:00,61.8,54.9,30.11,NNE,22,0.0,0.0,78,0.00,CLR,,0.00,0.0,WeatherDisplay:10.37,2013-07-02 06:35:00,
2013-07-02 01:40:00,61.7,54.8,30.11,NNE,22,0.0,0.0,78,0.00,CLR,,0.00,0.0,WeatherDisplay:10.37,2013-07-02 06:40:00,
2013-07-02 01:45:00,61.6,54.7,30.11,NNE,22,0.0,0.0,78,0.00,CLR,,0.00,0.0,WeatherDisplay:10.37,2013-07-02 06:45:00,
2013-07-02 01:50:00,61.6,54.7,30.12,NNE,22,0.0,0.0,78,0.00,CLR,,0.00,0.0,WeatherDisplay:10.37,2013-07-02 06:50:00,
2013-07-02 01:56:00,61.6,54.7,30.11,NNE,22,0.0,0.0,78,0.00,CLR,,0.00,0.0,WeatherDisplay:10.37,2013-07-02 06:56:00,
2013-07-02 02:01:00,61.7,55.1,30.11,NNE,22,0.0,0.0,79,0.00,CLR,,0.00,0.0,WeatherDisplay:10.37,2013-07-02 07:01:00,
2013-07-02 02:06:00,61.8,55.2,30.11,NNE,22,0.0,0.0,79,0.00,CLR,,0.00,0.0,WeatherDisplay:10.37,2013-07-02 07:06:00,
2013-07-02 02:11:00,61.9,55.3,30.11,NNE,22,0.0,0.0,79,0.00,CLR,,0.00,0.0,WeatherDisplay:10.37,2013-07-02 07:11:00,
2013-07-02 02:17:00,61.9,55.3,30.11,NNE,22,0.0,0.0,79,0.00,CLR,CLR,0.00,0.0,WeatherDisplay:10.37,2013-07-02 07:17:00,
2013-07-02 02:22:00,61.8,55.2,30.11,NNE,22,0.0,0.0,79,0.00,CLR,,0.00,0.0,WeatherDisplay:10.37,2013-07-02 07:22:00,
2013-07-02 02:27:00,61.8,55.2,30.11,NNE,22,0.0,0.0,79,0.00,CLR,,0.00,0.0,WeatherDisplay:10.37,2013-07-02 07:27:00,
2013-07-02 02:32:00,61.7,55.1,30.11,NNE,22,0.0,0.0,79,0.00,CLR,,0.00,0.0,WeatherDisplay:10.37,2013-07-02 07:32:00,
2013-07-02 02:37:00,61.6,55.0,30.11,NNE,22,0.0,0.0,79,0.00,CLR,,0.00,0.0,WeatherDisplay:10.37,2013-07-02 07:37:00,
2013-07-02 02:43:00,61.6,55.0,30.11,NNE,22,0.0,0.0,79,0.00,CLR,,0.00,0.0,WeatherDisplay:10.37,2013-07-02 07:43:00,
2013-07-02 02:48:00,61.5,54.9,30.11,NNE,22,0.0,0.0,79,0.00,CLR,,0.00,0.0,WeatherDisplay:10.37,2013-07-02 07:48:00,
2013-07-02 02:53:00,61.4,55.2,30.11,NNE,22,0.0,0.0,80,0.00,CLR,,0.00,0.0,WeatherDisplay:10.37,2013-07-02 07:53:00,
2013-07-02 02:58:00,61.3,55.1,30.11,NNE,22,0.0,0.0,80,0.00,CLR,,0.00,0.0,WeatherDisplay:10.37,2013-07-02 07:58:00,
2013-07-02 03:04:00,61.2,55.0,30.11,NNE,22,0.0,0.0,80,0.00,CLR,,0.00,0.0,WeatherDisplay:10.37,2013-07-02 08:04:00,
2013-07-02 03:09:00,61.1,55.2,30.11,NNE,22,0.0,0.0,81,0.00,CLR,,0.00,0.0,WeatherDisplay:10.37,2013-07-02 08:09:00,
2013-07-02 03:14:00,61.0,55.5,30.11,NNE,22,0.0,0.0,82,0.00,CLR,,0.00,0.0,WeatherDisplay:10.37,2013-07-02 08:14:00,
2013-07-02 03:19:00,60.8,55.3,30.11,NNE,22,0.0,0.0,82,0.00,CLR,,0.00,0.0,WeatherDisplay:10.37,2013-07-02 08:19:00,
2013-07-02 03:25:00,60.7,55.2,30.11,NNE,22,0.0,0.0,82,0.00,CLR,,0.00,0.0,WeatherDisplay:10.37,2013-07-02 08:25:00,
2013-07-02 03:30:00,60.5,55.3,30.11,NNE,22,0.0,0.0,83,0.00,CLR,,0.00,0.0,WeatherDisplay:10.37,2013-07-02 08:30:00,
2013-07-02 03:35:00,60.3,55.1,30.11,NNE,22,0.0,0.0,83,0.00,CLR,,0.00,0.0,WeatherDisplay:10.37,2013-07-02 08:35:00,
2013-07-02 03:40:00,60.2,55.0,30.11,NNE,22,0.0,0.0,83,0.00,CLR,,0.00,0.0,WeatherDisplay:10.37,2013-07-02 08:40:00,
2013-07-02 03:46:00,60.0,55.2,30.11,NNE,22,0.0,0.0,84,0.00,CLR,,0.00,0.0,WeatherDisplay:10.37,2013-07-02 08:46:00,
2013-07-02 03:51:00,59.8,55.0,30.11,NNE,22,0.0,0.0,84,0.00,CLR,,0.00,0.0,WeatherDisplay:10.37,2013-07-02 08:51:00,
2013-07-02 03:56:00,59.6,54.8,30.11,NNE,22,0.0,0.0,84,0.00,CLR,,0.00,0.0,WeatherDisplay:10.37,2013-07-02 08:56:00,
2013-07-02 04:01:00,59.5,55.0,30.11,NNE,22,0.0,0.0,85,0.00,CLR,,0.00,0.0,WeatherDisplay:10.37,2013-07-02 09:01:00,
2013-07-02 04:07:00,59.3,55.1,30.11,NNE,22,0.0,0.0,86,0.00,CLR,CLR,0.00,0.0,WeatherDisplay:10.37,2013-07-02 09:07:00,
2013-07-02 04:12:00,59.3,55.4,30.10,NNE,22,0.0,0.0,87,0.00,CLR,CLR,0.00,0.0,WeatherDisplay:10.37,2013-07-02 09:12:00,
2013-07-02 04:17:00,59.2,55.3,30.10,NNE,22,0.0,0.0,87,0.00,CLR,,0.00,0.0,WeatherDisplay:10.37,2013-07-02 09:17:00,
2013-07-02 04:22:00,59.1,55.5,30.11,NNE,22,0.0,0.0,88,0.00,CLR,CLR,0.00,0.0,WeatherDisplay:10.37,2013-07-02 09:22:00,
2013-07-02 04:27:00,59.0,55.4,30.11,NNE,22,0.0,0.0,88,0.00,CLR,CLR,0.00,0.0,WeatherDisplay:10.37,2013-07-02 09:27:00,
2013-07-02 04:32:00,58.9,55.4,30.11,NNE,22,0.0,0.0,88,0.00,CLR,,0.00,0.0,WeatherDisplay:10.37,2013-07-02 09:32:00,
2013-07-02 04:37:00,58.9,55.6,30.11,NNE,22,0.0,0.0,89,0.00,CLR,CLR,0.00,0.0,WeatherDisplay:10.37,2013-07-02 09:37:00,
2013-07-02 04:42:00,58.7,55.5,30.11,NNE,22,0.0,0.0,89,0.00,CLR,CLR,0.00,0.0,WeatherDisplay:10.37,2013-07-02 09:42:00,
2013-07-02 04:47:00,58.7,55.5,30.11,NNE,22,0.0,0.0,89,0.00,CLR,CLR,0.00,0.0,WeatherDisplay:10.37,2013-07-02 09:47:00,
2013-07-02 04:52:00,58.5,55.3,30.11,NNE,22,0.0,0.0,89,0.00,CLR,,0.00,0.0,WeatherDisplay:10.37,2013-07-02 09:52:00,
2013-07-02 04:57:00,58.4,55.2,30.11,NNE,22,0.0,0.0,89,0.00,CLR,,0.00,0.0,WeatherDisplay:10.37,2013-07-02 09:57:00,
2013-07-02 05:02:00,58.2,55.0,30.11,NNE,22,0.0,0.0,89,0.00,FEW,,0.00,0.0,WeatherDisplay:10.37,2013-07-02 10:02:00,
2013-07-02 05:08:00,58.2,55.0,30.11,NNE,22,0.0,0.0,89,0.00,FEW,,0.00,0.0,WeatherDisplay:10.37,2013-07-02 10:08:00,
2013-07-02 05:13:00,58.1,55.2,30.11,NNE,22,0.0,0.0,90,0.00,FEW,,0.00,0.0,WeatherDisplay:10.37,2013-07-02 10:13:00,
2013-07-02 05:18:00,58.0,55.1,30.11,NNE,22,0.0,0.0,90,0.00,FEW,,0.00,0.0,WeatherDisplay:10.37,2013-07-02 10:18:00,
2013-07-02 05:23:00,58.0,55.1,30.11,NNE,22,0.0,0.0,90,0.00,FEW,,0.00,0.0,WeatherDisplay:10.37,2013-07-02 10:23:00,
2013-07-02 05:29:00,57.9,55.3,30.11,NNE,22,0.0,0.0,91,0.00,FEW,,0.00,0.0,WeatherDisplay:10.37,2013-07-02 10:29:00,
2013-07-02 05:34:00,57.9,55.3,30.11,NNE,22,0.0,0.0,91,0.00,FEW,,0.00,0.0,WeatherDisplay:10.37,2013-07-02 10:34:00,
2013-07-02 05:39:00,57.9,55.3,30.11,NNE,22,0.0,0.0,91,0.00,FEW,,0.00,0.0,WeatherDisplay:10.37,2013-07-02 10:39:00,
2013-07-02 05:44:00,57.8,55.2,30.11,NNE,22,0.0,0.0,91,0.00,FEW,,0.00,0.0,WeatherDisplay:10.37,2013-07-02 10:44:00,
2013-07-02 05:50:00,57.7,55.1,30.11,NNE,22,0.0,0.0,91,0.00,FEW,,0.00,0.0,WeatherDisplay:10.37,2013-07-02 10:50:00,
2013-07-02 05:55:00,57.6,55.0,30.11,NNE,22,0.0,0.0,91,0.00,FEW,,0.00,7.0,WeatherDisplay:10.37,2013-07-02 10:55:00,
2013-07-02 06:00:00,57.6,55.3,30.11,NNE,22,0.0,0.0,92,0.00,FEW,,0.00,12.6,WeatherDisplay:10.37,2013-07-02 11:00:00,
2013-07-02 06:05:00,57.6,55.3,30.12,NNE,22,0.0,0.0,92,0.00,FEW,,0.00,15.4,WeatherDisplay:10.37,2013-07-02 11:05:00,
2013-07-02 06:11:00,57.6,55.3,30.11,NNE,22,0.0,0.0,92,0.00,FEW,,0.00,19.6,WeatherDisplay:10.37,2013-07-02 11:11:00,
2013-07-02 06:16:00,57.6,55.3,30.11,NNE,22,0.0,0.0,92,0.00,FEW,,0.00,25.2,WeatherDisplay:10.37,2013-07-02 11:16:00,
2013-07-02 06:21:00,57.6,55.3,30.12,NNE,22,0.0,0.0,92,0.00,FEW,,0.00,29.4,WeatherDisplay:10.37,2013-07-02 11:21:00,
2013-07-02 06:26:00,57.7,55.4,30.12,NNE,22,0.0,0.0,92,0.00,FEW,,0.00,35.0,WeatherDisplay:10.37,2013-07-02 11:26:00,
2013-07-02 06:32:00,57.8,55.5,30.12,NNE,22,0.0,0.0,92,0.00,FEW,FEW,0.00,39.2,WeatherDisplay:10.37,2013-07-02 11:32:00,
2013-07-02 06:37:00,58.0,55.7,30.12,NNE,22,0.0,0.0,92,0.00,FEW,,0.00,46.2,WeatherDisplay:10.37,2013-07-02 11:37:00,
2013-07-02 06:42:00,58.1,55.8,30.12,South,176,0.0,0.0,92,0.00,FEW,,0.00,46.2,WeatherDisplay:10.37,2013-07-02 11:42:00,
2013-07-02 06:47:00,58.3,56.0,30.13,SSE,150,0.0,0.0,92,0.00,FEW,,0.00,49.0,WeatherDisplay:10.37,2013-07-02 11:47:00,
2013-07-02 06:52:00,58.5,55.9,30.13,NW,309,0.1,2.0,91,0.00,FEW,,0.00,54.6,WeatherDisplay:10.37,2013-07-02 11:52:00,
2013-07-02 06:58:00,58.9,56.0,30.13,NW,309,0.0,0.0,90,0.00,FEW,,0.00,58.8,WeatherDisplay:10.37,2013-07-02 11:58:00,
2013-07-02 07:03:00,59.2,56.3,30.13,NW,309,0.0,0.0,90,0.00,FEW,,0.00,68.6,WeatherDisplay:10.37,2013-07-02 12:03:00,
2013-07-02 07:08:00,59.6,56.4,30.13,West,269,0.1,3.5,89,0.00,FEW,,0.00,65.8,WeatherDisplay:10.37,2013-07-02 12:08:00,
2013-07-02 07:13:00,60.2,56.3,30.13,West,269,0.0,1.2,87,0.00,FEW,,0.00,71.4,WeatherDisplay:10.37,2013-07-02 12:13:00,
2013-07-02 07:19:00,60.9,56.4,30.13,West,271,0.0,0.0,85,0.00,FEW,,0.00,75.6,WeatherDisplay:10.37,2013-07-02 12:19:00,
2013-07-02 07:24:00,61.7,56.5,30.13,WNW,283,0.0,0.0,83,0.00,FEW,,0.00,81.2,WeatherDisplay:10.37,2013-07-02 12:24:00,
2013-07-02 07:29:00,62.3,56.4,30.13,WNW,287,0.0,6.9,81,0.00,FEW,,0.00,84.0,WeatherDisplay:10.37,2013-07-02 12:29:00,
2013-07-02 07:34:00,62.9,56.6,30.13,WNW,287,1.3,2.0,80,0.00,FEW,,0.00,88.2,WeatherDisplay:10.37,2013-07-02 12:34:00,
2013-07-02 07:40:00,63.5,56.9,30.13,WNW,287,0.0,1.2,79,0.00,FEW,,0.00,91.0,WeatherDisplay:10.37,2013-07-02 12:40:00,
2013-07-02 07:45:00,64.1,57.1,30.13,West,277,0.0,1.2,78,0.00,FEW,,0.00,96.6,WeatherDisplay:10.37,2013-07-02 12:45:00,
2013-07-02 07:50:00,64.7,57.3,30.13,West,277,0.0,0.0,77,0.00,FEW,,0.00,98.0,WeatherDisplay:10.37,2013-07-02 12:50:00,
2013-07-02 07:55:00,65.3,57.5,30.13,West,281,0.0,1.0,76,0.00,FEW,,0.00,100.8,WeatherDisplay:10.37,2013-07-02 12:55:00,
2013-07-02 08:01:00,65.8,57.3,30.13,West,281,0.7,3.5,74,0.00,FEW,,0.00,103.6,WeatherDisplay:10.37,2013-07-02 13:01:00,
2013-07-02 08:06:00,66.3,57.4,30.13,NW,316,1.0,3.5,73,0.00,FEW,,0.00,106.4,WeatherDisplay:10.37,2013-07-02 13:06:00,
2013-07-02 08:11:00,66.8,57.5,30.13,NW,311,0.1,1.2,72,0.00,FEW,,0.00,107.8,WeatherDisplay:10.37,2013-07-02 13:11:00,
2013-07-02 08:16:00,67.4,57.7,30.13,WNW,284,1.7,3.5,71,0.00,FEW,,0.00,142.8,WeatherDisplay:10.37,2013-07-02 13:16:00,
2013-07-02 08:22:00,67.9,57.4,30.13,WNW,302,2.0,6.0,69,0.00,FEW,FEW,0.00,172.2,WeatherDisplay:10.37,2013-07-02 13:22:00,
2013-07-02 08:27:00,68.4,57.4,30.13,WNW,285,1.0,6.0,68,0.00,FEW,FEW,0.00,273.0,WeatherDisplay:10.37,2013-07-02 13:27:00,
2013-07-02 08:32:00,68.9,57.9,30.13,WNW,298,0.2,3.5,68,0.00,FEW,,0.00,123.2,WeatherDisplay:10.37,2013-07-02 13:32:00,
2013-07-02 08:37:00,69.3,57.9,30.13,WNW,298,1.3,3.5,67,0.00,FEW,,0.00,123.2,WeatherDisplay:10.37,2013-07-02 13:37:00,
2013-07-02 08:42:00,69.7,57.8,30.13,West,281,1.0,3.5,66,0.00,FEW,,0.00,126.0,WeatherDisplay:10.37,2013-07-02 13:42:00,
2013-07-02 08:48:00,70.2,58.7,30.13,NW,306,0.3,2.3,67,0.00,FEW,,0.00,145.6,WeatherDisplay:10.37,2013-07-02 13:48:00,
2013-07-02 08:53:00,70.7,58.8,30.13,West,264,0.2,2.0,66,0.00,FEW,,0.00,130.2,WeatherDisplay:10.37,2013-07-02 13:53:00,
2013-07-02 08:58:00,71.0,57.8,30.13,West,270,0.0,2.3,63,0.00,FEW,,0.00,135.8,WeatherDisplay:10.37,2013-07-02 13:58:00,
2013-07-02 09:03:00,71.3,57.2,30.13,West,275,1.9,5.8,61,0.00,FEW,,0.00,137.2,WeatherDisplay:10.37,2013-07-02 14:03:00,
2013-07-02 09:09:00,71.7,58.0,30.13,WNW,298,0.4,3.0,62,0.00,FEW,,0.00,140.0,WeatherDisplay:10.37,2013-07-02 14:09:00,
2013-07-02 09:14:00,72.0,57.8,30.13,WNW,291,0.1,1.0,61,0.00,FEW,,0.00,142.8,WeatherDisplay:10.37,2013-07-02 14:14:00,
2013-07-02 09:19:00,72.1,58.4,30.13,NW,313,0.2,1.2,62,0.00,FEW,,0.00,168.0,WeatherDisplay:10.37,2013-07-02 14:19:00,
2013-07-02 09:24:00,72.5,58.7,30.12,NW,325,0.0,0.0,62,0.00,FEW,,0.00,147.0,WeatherDisplay:10.37,2013-07-02 14:24:00,
2013-07-02 09:30:00,72.8,58.6,30.12,NW,309,0.2,3.5,61,0.00,FEW,,0.00,168.0,WeatherDisplay:10.37,2013-07-02 14:30:00,
2013-07-02 09:35:00,73.2,58.9,30.12,SSW,212,0.7,3.5,61,0.00,FEW,,0.00,165.2,WeatherDisplay:10.37,2013-07-02 14:35:00,
2013-07-02 09:40:00,73.6,58.4,30.12,WNW,302,1.1,4.0,59,0.00,FEW,,0.00,155.4,WeatherDisplay:10.37,2013-07-02 14:40:00,
2013-07-02 09:45:00,74.1,58.9,30.12,WNW,302,1.9,5.8,59,0.00,FEW,,0.00,155.4,WeatherDisplay:10.37,2013-07-02 14:45:00,
2013-07-02 09:51:00,74.4,57.2,30.11,West,273,1.3,6.9,55,0.00,FEW,,0.00,158.2,WeatherDisplay:10.37,2013-07-02 14:51:00,
2013-07-02 09:56:00,74.7,58.5,30.11,WNW,303,1.8,5.8,57,0.00,FEW,,0.00,159.6,WeatherDisplay:10.37,2013-07-02 14:56:00,
2013-07-02 10:01:00,75.0,59.7,30.11,WNW,286,2.7,8.0,59,0.00,FEW,,0.00,162.4,WeatherDisplay:10.37,2013-07-02 15:01:00,
2013-07-02 10:06:00,75.3,58.0,30.11,NNW,347,2.2,6.9,55,0.00,FEW,,0.00,168.0,WeatherDisplay:10.37,2013-07-02 15:06:00,
2013-07-02 10:12:00,75.5,58.7,30.11,NW,314,2.0,7.0,56,0.00,FEW,FEW,0.00,172.2,WeatherDisplay:10.37,2013-07-02 15:12:00,
2013-07-02 10:17:00,75.9,59.1,30.11,WNW,293,0.7,2.3,56,0.00,FEW,,0.00,331.8,WeatherDisplay:10.37,2013-07-02 15:17:00,
2013-07-02 10:22:00,76.1,60.2,30.11,WNW,286,0.0,6.0,58,0.00,FEW,FEW,0.00,974.4,WeatherDisplay:10.37,2013-07-02 15:22:00,
2013-07-02 10:27:00,76.4,59.1,30.11,West,274,2.0,9.0,55,0.00,FEW,FEW,0.00,957.6,WeatherDisplay:10.37,2013-07-02 15:27:00,
2013-07-02 10:32:00,76.6,58.2,30.11,WNW,296,2.2,5.8,53,0.00,FEW,,0.00,770.0,WeatherDisplay:10.37,2013-07-02 15:32:00,
2013-07-02 10:37:00,76.9,60.0,30.11,WNW,300,3.0,9.0,56,0.00,FEW,,0.00,1036.0,WeatherDisplay:10.37,2013-07-02 15:37:00,
2013-07-02 10:42:00,77.2,58.2,30.11,WNW,300,4.1,8.1,52,0.00,FEW,,0.00,1052.8,WeatherDisplay:10.37,2013-07-02 15:42:00,
2013-07-02 10:47:00,77.5,57.9,30.11,NNW,343,5.1,8.1,51,0.00,FEW,,0.00,1071.0,WeatherDisplay:10.37,2013-07-02 15:47:00,
2013-07-02 10:53:00,77.8,57.7,30.11,WSW,256,4.6,9.2,50,0.00,FEW,,0.00,1085.0,WeatherDisplay:10.37,2013-07-02 15:53:00,
2013-07-02 10:58:00,78.2,58.6,30.11,WNW,284,1.8,6.9,51,0.00,FEW,,0.00,1097.6,WeatherDisplay:10.37,2013-07-02 15:58:00,
2013-07-02 11:03:00,78.5,59.9,30.11,NNW,331,0.0,1.2,53,0.00,FEW,,0.00,1113.0,WeatherDisplay:10.37,2013-07-02 16:03:00,
2013-07-02 11:08:00,78.9,59.2,30.11,NNW,333,0.6,5.8,51,0.00,FEW,,0.00,1124.2,WeatherDisplay:10.37,2013-07-02 16:08:00,
2013-07-02 11:14:00,79.2,58.4,30.11,North,9,0.0,0.0,49,0.00,FEW,,0.00,1146.6,WeatherDisplay:10.37,2013-07-02 16:14:00,
2013-07-02 11:19:00,79.6,59.3,30.11,West,281,0.3,1.2,50,0.00,FEW,,0.00,1166.2,WeatherDisplay:10.37,2013-07-02 16:19:00,
2013-07-02 11:24:00,79.8,58.4,30.11,NW,306,6.0,9.2,48,0.00,FEW,,0.00,1169.0,WeatherDisplay:10.37,2013-07-02 16:24:00,
2013-07-02 11:29:00,79.8,60.6,30.10,West,272,0.6,1.2,52,0.00,FEW,,0.00,1188.6,WeatherDisplay:10.37,2013-07-02 16:29:00,
2013-07-02 11:35:00,80.1,59.2,30.10,West,272,2.2,9.2,49,0.00,FEW,,0.00,1205.4,WeatherDisplay:10.37,2013-07-02 16:35:00,
2013-07-02 11:40:00,80.3,59.4,30.10,West,264,2.4,5.8,49,0.00,FEW,,0.00,1220.8,WeatherDisplay:10.37,2013-07-02 16:40:00,
2013-07-02 11:45:00,80.4,59.5,30.10,WNW,288,4.6,9.2,49,0.00,FEW,,0.00,1233.4,WeatherDisplay:10.37,2013-07-02 16:45:00,
2013-07-02 11:50:00,80.2,59.3,30.10,WNW,290,0.0,11.5,49,0.00,FEW,,0.00,1205.4,WeatherDisplay:10.37,2013-07-02 16:50:00,
2013-07-02 11:56:00,80.3,58.8,30.10,WNW,289,6.3,9.2,48,0.00,FEW,,0.00,1254.4,WeatherDisplay:10.37,2013-07-02 16:56:00,
2013-07-02 12:01:00,80.5,60.7,30.10,WNW,283,1.2,4.6,51,0.00,FEW,,0.00,1265.6,WeatherDisplay:10.37,2013-07-02 17:01:00,
2013-07-02 12:06:00,80.7,58.6,30.10,NW,322,3.6,9.2,47,0.00,FEW,,0.00,1282.4,WeatherDisplay:10.37,2013-07-02 17:06:00,
2013-07-02 12:11:00,80.7,58.6,30.10,SW,225,0.5,5.8,47,0.00,FEW,,0.00,1344.0,WeatherDisplay:10.37,2013-07-02 17:11:00,
2013-07-02 12:17:00,80.8,59.9,30.09,NW,321,0.4,6.9,49,0.00,FEW,,0.00,1318.8,WeatherDisplay:10.37,2013-07-02 17:17:00,
2013-07-02 12:22:00,81.1,59.0,30.10,NNW,336,0.8,3.5,47,0.00,FEW,,0.00,1353.8,WeatherDisplay:10.37,2013-07-02 17:22:00,
2013-07-02 12:27:00,81.6,60.6,30.09,NNW,346,2.6,4.0,49,0.00,FEW,,0.00,1429.4,WeatherDisplay:10.37,2013-07-02 17:27:00,
2013-07-02 12:32:00,81.4,59.2,30.09,NW,317,4.2,6.9,47,0.00,FEW,,0.00,1500.8,WeatherDisplay:10.37,2013-07-02 17:32:00,
2013-07-02 12:38:00,81.2,58.5,30.09,WNW,297,1.5,4.6,46,0.00,FEW,,0.00,320.6,WeatherDisplay:10.37,2013-07-02 17:38:00,
2013-07-02 12:43:00,80.6,58.5,30.09,NW,317,0.1,2.3,47,0.00,FEW,,0.00,350.0,WeatherDisplay:10.37,2013-07-02 17:43:00,
2013-07-02 12:48:00,80.2,59.9,30.09,NW,304,0.0,2.3,50,0.00,FEW,,0.00,390.6,WeatherDisplay:10.37,2013-07-02 17:48:00,
2013-07-02 12:53:00,80.1,58.0,30.09,WNW,296,0.0,2.3,47,0.00,FEW,,0.00,1422.4,WeatherDisplay:10.37,2013-07-02 17:53:00,
2013-07-02 12:59:00,81.1,59.0,30.09,North,355,0.7,2.3,47,0.00,FEW,,0.00,1486.8,WeatherDisplay:10.37,2013-07-02 17:59:00,
2013-07-02 13:04:00,81.5,58.1,30.09,WNW,301,1.3,3.5,45,0.00,SCT,,0.00,253.4,WeatherDisplay:10.37,2013-07-02 18:04:00,
2013-07-02 13:09:00,80.7,58.6,30.08,WSW,250,1.8,5.8,47,0.00,SCT,,0.00,263.2,WeatherDisplay:10.37,2013-07-02 18:09:00,
2013-07-02 13:14:00,80.1,60.3,30.08,WNW,302,0.0,0.0,51,0.00,SCT,,0.00,1402.8,WeatherDisplay:10.37,2013-07-02 18:14:00,
2013-07-02 13:20:00,81.3,59.1,30.08,WSW,245,0.3,2.3,47,0.00,SCT,,0.00,1397.2,WeatherDisplay:10.37,2013-07-02 18:20:00,
2013-07-02 13:25:00,81.8,60.2,30.08,South,187,2.6,5.8,48,0.00,SCT,,0.00,1457.4,WeatherDisplay:10.37,2013-07-02 18:25:00,
2013-07-02 13:30:00,82.3,58.2,30.07,NNE,19,4.0,9.2,44,0.00,SCT,,0.00,280.0,WeatherDisplay:10.37,2013-07-02 18:30:00,
2013-07-02 13:35:00,81.9,58.5,30.07,WNW,302,0.3,5.0,45,0.00,SCT,,0.00,1386.0,WeatherDisplay:10.37,2013-07-02 18:35:00,
2013-07-02 13:41:00,82.0,59.8,30.07,SW,232,0.4,2.3,47,0.00,SCT,,0.00,1353.8,WeatherDisplay:10.37,2013-07-02 18:41:00,
2013-07-02 13:46:00,82.1,58.7,30.07,West,277,3.6,6.9,45,0.00,SCT,,0.00,361.2,WeatherDisplay:10.37,2013-07-02 18:46:00,
2013-07-02 13:51:00,81.6,58.2,30.07,NNE,32,1.1,7.0,45,0.00,SCT,,0.00,1363.6,WeatherDisplay:10.37,2013-07-02 18:51:00,
2013-07-02 13:56:00,81.5,58.1,30.06,NNE,13,0.0,0.0,45,0.00,SCT,,0.00,1356.6,WeatherDisplay:10.37,2013-07-02 18:56:00,
2013-07-02 14:02:00,82.0,59.8,30.06,North,0,1.0,5.0,47,0.00,SCT,SCT,0.00,1386.0,WeatherDisplay:10.37,2013-07-02 19:02:00,
2013-07-02 14:07:00,82.3,58.2,30.06,WSW,244,4.1,10.4,44,0.00,SCT,,0.00,1358.0,WeatherDisplay:10.37,2013-07-02 19:07:00,
2013-07-02 14:12:00,82.9,58.1,30.06,NW,313,3.6,9.2,43,0.00,SCT,,0.00,1344.0,WeatherDisplay:10.37,2013-07-02 19:12:00,
2013-07-02 14:17:00,82.7,57.3,30.06,West,279,2.5,8.1,42,0.00,SCT,,0.00,1346.8,WeatherDisplay:10.37,2013-07-02 19:17:00,
2013-07-02 14:22:00,82.7,57.3,30.05,North,360,0.5,4.6,42,0.02,RA,,0.03,1208.2,WeatherDisplay:10.37,2013-07-02 19:22:00,
2013-07-02 14:28:00,82.7,57.3,30.05,WNW,296,1.1,4.0,42,0.03,SCT,,0.03,1149.4,WeatherDisplay:10.37,2013-07-02 19:28:00,
2013-07-02 14:33:00,82.7,57.3,30.05,NE,50,4.4,9.2,42,0.03,SCT,,0.03,1348.2,WeatherDisplay:10.37,2013-07-02 19:33:00,
2013-07-02 14:38:00,82.7,57.3,30.05,NNE,13,3.2,8.1,42,0.03,SCT,,0.03,838.6,WeatherDisplay:10.37,2013-07-02 19:38:00,
2013-07-02 14:43:00,82.7,57.3,30.05,NNE,14,0.0,3.5,42,0.03,SCT,,0.03,1302.0,WeatherDisplay:10.37,2013-07-02 19:43:00,
2013-07-02 14:49:00,82.7,57.3,30.05,North,0,1.0,8.1,42,0.03,SCT,,0.03,1318.8,WeatherDisplay:10.37,2013-07-02 19:49:00,
2013-07-02 14:54:00,84.0,57.1,30.05,NW,306,0.3,2.3,40,0.03,SCT,,0.03,236.6,WeatherDisplay:10.37,2013-07-02 19:54:00,
2013-07-02 14:59:00,84.4,56.0,30.05,West,268,4.2,10.4,38,0.03,SCT,,0.03,1299.2,WeatherDisplay:10.37,2013-07-02 19:59:00,
2013-07-02 15:04:00,84.7,58.4,30.04,NW,319,1.7,3.5,41,0.03,SCT,,0.03,1240.4,WeatherDisplay:10.37,2013-07-02 20:04:00,
2013-07-02 15:10:00,85.0,58.0,30.04,WNW,293,1.7,6.9,40,0.03,SCT,,0.03,207.2,WeatherDisplay:10.37,2013-07-02 20:10:00,
2013-07-02 15:15:00,85.0,55.1,30.04,NNW,338,1.4,3.5,36,0.03,SCT,,0.03,1243.2,WeatherDisplay:10.37,2013-07-02 20:15:00,
2013-07-02 15:20:00,85.2,57.4,30.03,WNW,286,1.8,6.0,39,0.03,SCT,,0.03,1260.0,WeatherDisplay:10.37,2013-07-02 20:20:00,
2013-07-02 15:25:00,85.4,56.2,30.03,NW,304,0.0,3.5,37,0.00,SCT,,0.03,1120.0,WeatherDisplay:10.37,2013-07-02 20:25:00,
2013-07-02 15:31:00,85.6,57.1,30.03,West,266,0.0,1.2,38,0.00,SCT,,0.03,240.8,WeatherDisplay:10.37,2013-07-02 20:31:00,
2013-07-02 15:36:00,85.5,57.0,30.03,South,187,0.1,5.8,38,0.00,SCT,,0.03,1276.8,WeatherDisplay:10.37,2013-07-02 20:36:00,
2013-07-02 15:41:00,85.6,56.3,30.03,WNW,293,3.5,8.0,37,0.00,SCT,,0.03,1299.2,WeatherDisplay:10.37,2013-07-02 20:41:00,
2013-07-02 15:46:00,85.5,57.0,30.03,West,276,0.6,3.5,38,0.00,SCT,,0.03,1265.6,WeatherDisplay:10.37,2013-07-02 20:46:00,
2013-07-02 15:52:00,85.7,57.9,30.03,WSW,251,2.0,4.0,39,0.00,SCT,SCT,0.03,1325.8,WeatherDisplay:10.37,2013-07-02 20:52:00,
2013-07-02 15:57:00,85.4,56.2,30.04,NW,326,2.0,14.0,37,0.00,SCT,SCT,0.03,268.8,WeatherDisplay:10.37,2013-07-02 20:57:00,
2013-07-02 16:02:00,84.2,55.1,30.04,NNW,327,5.0,10.0,37,0.00,SCT,SCT,0.03,127.4,WeatherDisplay:10.37,2013-07-02 21:02:00,
2013-07-02 16:07:00,82.9,54.7,30.03,WNW,297,2.2,9.2,38,0.00,SCT,,0.03,116.2,WeatherDisplay:10.37,2013-07-02 21:07:00,
2013-07-02 16:12:00,82.0,54.6,30.03,SE,135,0.7,8.1,39,0.00,SCT,,0.03,110.6,WeatherDisplay:10.37,2013-07-02 21:12:00,
2013-07-02 16:17:00,81.1,57.1,30.03,NNE,19,0.0,3.5,44,0.00,SCT,,0.03,107.8,WeatherDisplay:10.37,2013-07-02 21:17:00,
2013-07-02 16:23:00,80.3,57.6,30.04,NE,44,0.0,3.5,46,0.00,SCT,,0.03,96.6,WeatherDisplay:10.37,2013-07-02 21:23:00,
2013-07-02 16:28:00,79.7,56.5,30.04,NE,44,0.0,0.0,45,0.00,SCT,,0.03,81.2,WeatherDisplay:10.37,2013-07-02 21:28:00,
2013-07-02 16:33:00,79.3,56.7,30.03,NE,44,0.0,0.0,46,0.00,SCT,,0.03,75.6,WeatherDisplay:10.37,2013-07-02 21:33:00,
2013-07-02 16:38:00,79.0,57.6,30.03,NE,44,0.0,0.0,48,0.00,SCT,,0.03,74.2,WeatherDisplay:10.37,2013-07-02 21:38:00,
2013-07-02 16:44:00,78.8,59.1,30.03,NE,44,0.0,0.0,51,0.00,SCT,,0.03,96.6,WeatherDisplay:10.37,2013-07-02 21:44:00,
2013-07-02 16:49:00,78.4,58.2,30.03,NE,44,0.0,0.0,50,0.00,SCT,,0.03,98.0,WeatherDisplay:10.37,2013-07-02 21:49:00,
2013-07-02 17:11:00,77.5,58.5,30.03,ENE,58,0.0,0.0,52,0.00,SCT,,0.03,165.2,WeatherDisplay:10.37,2013-07-02 22:11:00,
2013-07-02 17:17:00,77.4,58.9,30.03,NE,53,0.0,0.0,53,0.00,RA,RA,0.00,182.0,WeatherDisplay:10.37,2013-07-02 22:17:00,
2013-07-02 17:22:00,77.3,59.9,30.03,ENE,58,0.0,0.0,55,0.00,SCT,,0.00,182.0,WeatherDisplay:10.37,2013-07-02 22:22:00,
2013-07-02 17:27:00,77.4,60.0,30.03,ENE,58,0.0,0.0,55,0.00,SCT,,0.00,189.0,WeatherDisplay:10.37,2013-07-02 22:27:00,
2013-07-02 17:32:00,77.4,59.5,30.03,ENE,58,0.0,0.0,54,0.00,SCT,,0.00,182.0,WeatherDisplay:10.37,2013-07-02 22:32:00,
2013-07-02 17:38:00,77.4,60.0,30.02,ENE,58,0.0,0.0,55,0.00,SCT,,0.00,191.8,WeatherDisplay:10.37,2013-07-02 22:38:00,
2013-07-02 17:43:00,77.5,61.1,30.02,ENE,58,0.0,0.0,57,0.00,SCT,,0.00,217.0,WeatherDisplay:10.37,2013-07-02 22:43:00,
2013-07-02 17:48:00,77.5,61.6,30.02,ENE,58,0.0,0.0,58,0.00,SCT,,0.00,266.0,WeatherDisplay:10.37,2013-07-02 22:48:00,
2013-07-02 17:53:00,77.6,60.2,30.02,ENE,58,0.0,0.0,55,0.00,SCT,,0.00,315.0,WeatherDisplay:10.37,2013-07-02 22:53:00,
2013-07-02 17:59:00,77.8,61.3,30.02,ENE,58,0.0,0.0,57,0.00,SCT,,0.00,344.4,WeatherDisplay:10.37,2013-07-02 22:59:00,
2013-07-02 18:04:00,78.0,61.0,30.02,ENE,58,0.0,0.0,56,0.00,BKN,,0.00,340.2,WeatherDisplay:10.37,2013-07-02 23:04:00,
2013-07-02 18:09:00,78.3,60.3,30.02,ENE,58,0.0,0.0,54,0.00,BKN,,0.00,315.0,WeatherDisplay:10.37,2013-07-02 23:09:00,
2013-07-02 18:14:00,78.7,57.4,30.03,NE,34,0.0,2.3,48,0.00,BKN,,0.00,344.4,WeatherDisplay:10.37,2013-07-02 23:14:00,
2013-07-02 18:20:00,79.1,57.7,30.02,NE,34,0.0,0.0,48,0.00,BKN,,0.00,354.2,WeatherDisplay:10.37,2013-07-02 23:20:00,
2013-07-02 18:25:00,79.3,60.1,30.02,South,186,0.3,3.5,52,0.00,BKN,,0.00,408.8,WeatherDisplay:10.37,2013-07-02 23:25:00,
2013-07-02 18:30:00,79.4,60.8,30.02,South,186,0.0,0.0,53,0.00,BKN,,0.00,243.6,WeatherDisplay:10.37,2013-07-02 23:30:00,
2013-07-02 18:31:00,79.3,60.7,30.02,South,178,0.0,1.2,53,0.00,BKN,,0.00,243.6,WeatherDisplay:10.37,2013-07-02 23:31:00,
2013-07-02 18:36:00,79.3,61.2,30.02,South,178,0.0,0.0,54,0.00,BKN,,0.00,214.2,WeatherDisplay:10.37,2013-07-02 23:36:00,
2013-07-02 18:41:00,79.1,60.5,30.02,South,178,0.0,0.0,53,0.00,BKN,,0.00,207.2,WeatherDisplay:10.37,2013-07-02 23:41:00,
2013-07-02 18:46:00,79.0,60.9,30.01,South,178,0.0,0.0,54,0.00,BKN,,0.00,194.6,WeatherDisplay:10.37,2013-07-02 23:46:00,
2013-07-02 18:52:00,78.8,60.2,30.01,South,178,0.0,0.0,53,0.00,BKN,BKN,0.00,177.8,WeatherDisplay:10.37,2013-07-02 23:52:00,
2013-07-02 18:55:00,78.7,61.2,30.01,South,178,0.0,0.0,55,0.00,BKN,,0.00,169.4,WeatherDisplay:10.37,2013-07-02 23:55:00,
2013-07-02 19:00:00,78.5,62.0,30.02,South,178,0.0,0.0,57,0.00,BKN,,0.00,152.6,WeatherDisplay:10.37,2013-07-03 00:00:00,
2013-07-02 19:01:00,78.4,62.4,30.01,South,178,0.0,0.0,58,0.00,BKN,,0.00,149.8,WeatherDisplay:10.37,2013-07-03 00:01:00,
2013-07-02 19:06:00,78.2,61.7,30.01,South,178,0.0,1.2,57,0.00,BKN,,0.00,137.2,WeatherDisplay:10.37,2013-07-03 00:06:00,
2013-07-02 19:10:00,78.0,62.0,30.01,South,178,0.0,0.0,58,0.00,BKN,,0.00,126.0,WeatherDisplay:10.37,2013-07-03 00:10:00,
2013-07-02 19:15:00,77.6,62.1,30.01,SSW,195,0.0,0.0,59,0.00,BKN,,0.00,106.4,WeatherDisplay:10.37,2013-07-03 00:15:00,
2013-07-02 19:20:00,77.3,62.3,30.01,SSW,194,0.0,0.0,60,0.00,BKN,,0.00,88.2,WeatherDisplay:10.37,2013-07-03 00:20:00,
2013-07-02 19:23:00,77.2,61.8,30.01,SSW,194,0.0,0.0,59,0.00,BKN,,0.00,84.0,WeatherDisplay:10.37,2013-07-03 00:23:00,
2013-07-02 19:25:00,77.1,62.1,30.01,South,177,0.0,0.0,60,0.00,BKN,,0.00,81.2,WeatherDisplay:10.37,2013-07-03 00:25:00,
2013-07-02 19:30:00,76.7,62.7,30.02,South,177,0.0,1.0,62,0.00,BKN,,0.00,74.2,WeatherDisplay:10.37,2013-07-03 00:30:00,
2013-07-02 19:35:00,76.4,61.0,30.02,South,174,0.0,2.3,59,0.00,BKN,,0.00,65.8,WeatherDisplay:10.37,2013-07-03 00:35:00,
2013-07-02 19:40:00,76.1,60.7,30.02,South,174,0.0,0.0,59,0.00,BKN,,0.00,61.6,WeatherDisplay:10.37,2013-07-03 00:40:00,
2013-07-02 19:46:00,75.9,60.5,30.02,South,174,0.0,0.0,59,0.00,BKN,,0.00,56.0,WeatherDisplay:10.37,2013-07-03 00:46:00,
2013-07-02 19:51:00,75.6,61.2,30.02,South,174,0.0,0.0,61,0.00,BKN,,0.00,51.8,WeatherDisplay:10.37,2013-07-03 00:51:00,
2013-07-02 19:56:00,75.3,60.5,30.02,South,174,0.0,0.0,60,0.00,BKN,,0.00,49.0,WeatherDisplay:10.37,2013-07-03 00:56:00,
2013-07-02 20:01:00,75.1,61.2,30.02,South,177,0.0,0.0,62,0.00,OVC,,0.00,49.0,WeatherDisplay:10.37,2013-07-03 01:01:00,
2013-07-02 20:04:00,75.0,61.1,30.02,South,177,0.0,0.0,62,0.00,OVC,,0.00,46.2,WeatherDisplay:10.37,2013-07-03 01:04:00,
2013-07-02 20:07:00,74.9,61.0,30.02,South,177,0.0,0.0,62,0.00,OVC,,0.00,46.2,WeatherDisplay:10.37,2013-07-03 01:07:00,
2013-07-02 20:10:00,74.8,61.4,30.02,South,177,0.0,0.0,63,0.00,OVC,,0.00,42.0,WeatherDisplay:10.37,2013-07-03 01:10:00,
2013-07-02 20:15:00,74.6,61.6,30.02,South,177,0.0,0.0,64,0.00,OVC,,0.00,36.4,WeatherDisplay:10.37,2013-07-03 01:15:00,
2013-07-02 20:21:00,74.3,60.9,30.02,South,177,0.0,0.0,63,0.00,OVC,,0.00,32.2,WeatherDisplay:10.37,2013-07-03 01:21:00,
2013-07-02 20:26:00,74.1,60.7,30.02,South,177,0.0,0.0,63,0.00,OVC,,0.00,19.6,WeatherDisplay:10.37,2013-07-03 01:26:00,
2013-07-02 20:27:00,74.0,61.0,30.02,South,177,0.0,0.0,64,0.00,OVC,,0.00,19.6,WeatherDisplay:10.37,2013-07-03 01:27:00,
2013-07-02 20:32:00,73.8,60.9,30.02,South,177,0.0,0.0,64,0.00,OVC,,0.00,12.6,WeatherDisplay:10.37,2013-07-03 01:32:00,
2013-07-02 20:38:00,73.6,60.7,30.02,South,177,0.0,0.0,64,0.00,OVC,,0.00,7.0,WeatherDisplay:10.37,2013-07-03 01:38:00,
2013-07-02 20:43:00,73.3,61.3,30.02,South,177,0.0,0.0,66,0.00,OVC,,0.00,0.0,WeatherDisplay:10.37,2013-07-03 01:43:00,
2013-07-02 20:49:00,73.1,61.1,30.02,South,177,0.0,0.0,66,0.00,OVC,,0.00,0.0,WeatherDisplay:10.37,2013-07-03 01:49:00,
2013-07-02 20:51:00,73.0,61.4,30.02,South,177,0.0,0.0,67,0.00,OVC,,0.00,0.0,WeatherDisplay:10.37,2013-07-03 01:51:00,
2013-07-02 20:57:00,72.7,60.7,30.02,South,177,0.0,0.0,66,0.00,OVC,OVC,0.00,0.0,WeatherDisplay:10.37,2013-07-03 01:57:00,
2013-07-02 21:02:00,72.4,60.4,30.02,South,177,0.0,0.0,66,0.00,BKN,,0.00,0.0,WeatherDisplay:10.37,2013-07-03 02:02:00,
2013-07-02 21:07:00,72.0,60.4,30.02,South,177,0.0,0.0,67,0.00,BKN,BKN,0.00,0.0,WeatherDisplay:10.37,2013-07-03 02:07:00,
2013-07-02 21:12:00,71.7,60.2,30.02,South,177,0.0,0.0,67,0.00,BKN,BKN,0.00,0.0,WeatherDisplay:10.37,2013-07-03 02:12:00,
2013-07-02 21:17:00,71.4,59.9,30.02,South,177,0.0,0.0,67,0.00,BKN,,0.00,0.0,WeatherDisplay:10.37,2013-07-03 02:17:00,
2013-07-02 21:23:00,71.1,60.0,30.02,South,177,0.0,0.0,68,0.00,BKN,,0.00,0.0,WeatherDisplay:10.37,2013-07-03 02:23:00,
2013-07-02 21:28:00,70.7,59.6,30.02,South,177,0.0,0.0,68,0.00,BKN,,0.00,0.0,WeatherDisplay:10.37,2013-07-03 02:28:00,
2013-07-02 21:33:00,70.3,60.1,30.02,South,177,0.0,0.0,70,0.00,BKN,,0.00,0.0,WeatherDisplay:10.37,2013-07-03 02:33:00,
2013-07-02 21:39:00,69.8,59.6,30.03,South,177,0.0,0.0,70,0.00,BKN,,0.00,0.0,WeatherDisplay:10.37,2013-07-03 02:39:00,
2013-07-02 21:44:00,69.4,59.6,30.03,South,177,0.0,0.0,71,0.00,BKN,,0.00,0.0,WeatherDisplay:10.37,2013-07-03 02:44:00,
2013-07-02 21:46:00,69.3,59.9,30.03,South,177,0.0,0.0,72,0.00,BKN,,0.00,0.0,WeatherDisplay:10.37,2013-07-03 02:46:00,
2013-07-02 21:51:00,68.8,59.8,30.03,South,177,0.0,0.0,73,0.00,BKN,,0.00,0.0,WeatherDisplay:10.37,2013-07-03 02:51:00,
2013-07-02 21:57:00,68.4,59.4,30.03,South,177,0.0,0.0,73,0.00,BKN,,0.00,0.0,WeatherDisplay:10.37,2013-07-03 02:57:00,
2013-07-02 22:02:00,68.0,59.4,30.03,South,177,0.0,0.0,74,0.00,SCT,SCT,0.00,0.0,WeatherDisplay:10.37,2013-07-03 03:02:00,
2013-07-02 22:04:00,67.8,59.2,30.03,South,177,0.0,0.0,74,0.00,SCT,,0.00,0.0,WeatherDisplay:10.37,2013-07-03 03:04:00,
2013-07-02 22:09:00,67.5,59.3,30.03,South,177,0.0,0.0,75,0.00,SCT,,0.00,0.0,WeatherDisplay:10.37,2013-07-03 03:09:00,
2013-07-02 22:15:00,67.1,59.3,30.03,South,177,0.0,0.0,76,0.00,SCT,,0.00,0.0,WeatherDisplay:10.37,2013-07-03 03:15:00,
2013-07-02 22:21:00,66.8,59.4,30.04,South,177,0.0,0.0,77,0.00,SCT,,0.00,0.0,WeatherDisplay:10.37,2013-07-03 03:21:00,
2013-07-02 22:22:00,66.7,59.3,30.04,South,177,0.0,0.0,77,0.00,SCT,,0.00,0.0,WeatherDisplay:10.37,2013-07-03 03:22:00,
2013-07-02 22:27:00,66.5,59.1,30.04,South,177,0.0,0.0,77,0.00,SCT,,0.00,0.0,WeatherDisplay:10.37,2013-07-03 03:27:00,
2013-07-02 22:33:00,66.2,59.5,30.04,South,177,0.0,0.0,79,0.00,SCT,,0.00,0.0,WeatherDisplay:10.37,2013-07-03 03:33:00,
2013-07-02 22:37:00,65.9,59.2,30.03,South,177,0.0,0.0,79,0.00,SCT,,0.00,0.0,WeatherDisplay:10.37,2013-07-03 03:37:00,
2013-07-02 22:40:00,65.8,59.1,30.03,South,177,0.0,0.0,79,0.00,SCT,,0.00,0.0,WeatherDisplay:10.37,2013-07-03 03:40:00,
2013-07-02 22:45:00,65.5,59.5,30.04,South,177,0.0,0.0,81,0.00,SCT,,0.00,0.0,WeatherDisplay:10.37,2013-07-03 03:45:00,
2013-07-02 22:49:00,65.3,59.3,30.03,South,177,0.0,0.0,81,0.00,SCT,,0.00,0.0,WeatherDisplay:10.37,2013-07-03 03:49:00,
2013-07-02 22:55:00,65.1,59.1,30.03,South,177,0.0,0.0,81,0.00,SCT,,0.00,0.0,WeatherDisplay:10.37,2013-07-03 03:55:00,
2013-07-02 23:01:00,64.9,59.3,30.03,South,177,0.0,0.0,82,0.00,CLR,,0.00,0.0,WeatherDisplay:10.37,2013-07-03 04:01:00,
2013-07-02 23:02:00,64.8,59.2,30.03,South,177,0.0,0.0,82,0.00,CLR,CLR,0.00,0.0,WeatherDisplay:10.37,2013-07-03 04:02:00,
2013-07-02 23:03:00,64.8,59.2,30.03,South,177,0.0,0.0,82,0.00,CLR,,0.00,0.0,WeatherDisplay:10.37,2013-07-03 04:03:00,
2013-07-02 23:05:00,64.7,59.1,30.03,South,177,0.0,0.0,82,0.00,CLR,,0.00,0.0,WeatherDisplay:10.37,2013-07-03 04:05:00,
2013-07-02 23:09:00,64.5,58.9,30.03,South,177,0.0,0.0,82,0.00,CLR,,0.00,0.0,WeatherDisplay:10.37,2013-07-03 04:09:00,
2013-07-02 23:14:00,64.3,59.0,30.03,South,177,0.0,0.0,83,0.00,CLR,,0.00,0.0,WeatherDisplay:10.37,2013-07-03 04:14:00,
2013-07-02 23:19:00,64.1,58.8,30.03,South,177,0.0,0.0,83,0.00,CLR,,0.00,0.0,WeatherDisplay:10.37,2013-07-03 04:19:00,
2013-07-02 23:24:00,63.9,58.6,30.03,South,177,0.0,0.0,83,0.00,CLR,,0.00,0.0,WeatherDisplay:10.37,2013-07-03 04:24:00,
2013-07-02 23:30:00,63.7,58.8,30.03,South,177,0.0,0.0,84,0.00,CLR,,0.00,0.0,WeatherDisplay:10.37,2013-07-03 04:30:00,
2013-07-02 23:31:00,63.7,59.1,30.03,South,177,0.0,0.0,85,0.00,CLR,,0.00,0.0,WeatherDisplay:10.37,2013-07-03 04:31:00,
2013-07-02 23:32:00,63.7,58.8,30.03,South,177,0.0,0.0,84,0.00,CLR,,0.00,0.0,WeatherDisplay:10.37,2013-07-03 04:32:00,
2013-07-02 23:38:00,63.5,58.9,30.03,South,177,0.0,0.0,85,0.00,CLR,,0.00,0.0,WeatherDisplay:10.37,2013-07-03 04:38:00,
2013-07-02 23:43:00,63.4,58.8,30.03,South,177,0.0,0.0,85,0.00,CLR,,0.00,0.0,WeatherDisplay:10.37,2013-07-03 04:43:00,
2013-07-02 23:45:00,63.4,58.8,30.03,South,177,0.0,0.0,85,0.00,CLR,,0.00,0.0,WeatherDisplay:10.37,2013-07-03 04:45:00,
2013-07-02 23:47:00,63.3,58.7,30.03,South,177,0.0,0.0,85,0.00,CLR,,0.00,0.0,WeatherDisplay:10.37,2013-07-03 04:47:00,
2013-07-02 23:52:00,63.2,58.9,30.03,South,177,0.0,0.0,86,0.00,CLR,,0.00,0.0,WeatherDisplay:10.37,2013-07-03 04:52:00,
2013-07-02 23:53:00,63.1,58.8,30.03,South,177,0.0,0.0,86,0.00,CLR,,0.00,0.0,WeatherDisplay:10.37,2013-07-03 04:53:00,
2013-07-02 23:58:00,63.0,58.7,30.03,South,177,0.0,0.0,86,0.00,CLR,,0.00,0.0,WeatherDisplay:10.37,2013-07-03 04:58:00,